KC5EZZ-4 Weather Reports


Display with metric or nautical units.
time (UTC)temp
F
wind
direction
speed
MPH
gust
MPH
rain 1hr
in
rain 24hr
in
rain mn
in
humidity
%
barometer
mb
20260507083024 55 5 4.0 10.0 0.00 0.00 0.00 80 1019.4
20260507081533 56 42 3.0 8.0 0.00 0.00 0.00 79 1019.3
20260507080018 56 15 4.0 9.0 0.00 0.00 0.00 79 1018.9
20260507074516 56 59 2.0 7.0 0.00 0.00 0.00 79 1018.8
20260507073013 57 33 3.0 7.0 0.00 0.00 0.00 79 1018.5
20260507071511 57 66 3.0 7.0 0.00 0.00 0.00 79 1018.5
20260507070106 57 46 3.0 6.0 0.00 0.00 0.00 80 1018.3
20260507064557 57 34 6.0 10.0 0.00 0.00 0.00 80 1017.7
20260507063053 57 355 4.0 10.0 0.00 0.00 0.00 81 1017.7
20260507061552 56 56 2.0 4.0 0.00 0.00 0.00 82 1017.6
20260507060058 56 22 2.0 4.0 0.00 0.00 0.00 82 1017.7
20260507054550 57 26 1.0 2.0 0.00 0.00 0.00 82 1017.5
20260507053048 57 65 1.0 3.0 0.00 0.00 0.00 82 1017.5
20260507051547 56 59 1.0 3.0 0.00 0.00 0.00 82 1017.4
20260507051323 55 35 2.0 2.0 0.00 0.00 0.00
20260507050035 57 68 0.0 3.0 0.00 0.00 0.00 81 1017.3
20260507044533 58 57 1.0 4.0 0.00 0.00 0.00 80 1017.2
20260507043318 57 55 4.0 3.0 0.00 0.00 0.00
20260507043030 58 51 2.0 5.0 0.00 0.00 0.00 80 1017.0
20260507041527 58 67 2.0 5.0 0.00 0.00 0.00 81 1016.8
20260507040026 58 79 3.0 6.0 0.00 0.00 0.00 82 1016.4
20260507035813 57 87 4.0 5.0 0.00 0.00 0.00
20260507034531 58 88 1.0 5.0 0.00 0.00 0.00 82 1016.2
20260507033019 58 92 1.0 3.0 0.00 0.00 0.00 81 1015.8
20260507032311 57 25 3.0 3.0 0.00 0.00 0.00
20260507031518 59 57 1.0 3.0 0.00 0.00 0.00 81 1015.6
20260507030006 59 65 1.0 3.0 0.00 0.00 0.00 80 1015.3
20260507024559 60 72 2.0 4.0 0.00 0.00 0.00 79 1015.1
20260507023109 61 115 1.0 4.0 0.00 0.00 0.00 78 1014.9
20260507021556 61 121 1.0 4.0 0.00 0.00 0.00 76 1014.7
20260507014557 63 112 2.0 6.0 0.00 0.00 0.00 73 1014.3
20260507013057 64 92 2.0 5.0 0.00 0.00 0.00 71 1014.3
20260507011554 65 111 3.0 8.0 0.00 0.00 0.00 69 1014.0
20260507010044 66 78 3.0 7.0 0.00 0.00 0.00 67 1013.7
20260507004543 67 111 4.0 7.0 0.00 0.00 0.00 67 1013.5
20260507003040 68 94 4.0 8.0 0.00 0.00 0.00 64 1013.4
20260507001605 69 72 3.0 7.0 0.00 0.00 0.00 59 1013.5
20260507000042 70 73 4.0 8.0 0.00 0.00 0.00 58 1013.5
20260506234540 70 55 3.0 9.0 0.00 0.00 0.00 59 1013.3
20260506233038 70 78 3.0 10.0 0.00 0.00 0.00 57 1013.3
20260506231537 70 56 2.0 6.0 0.00 0.00 0.00 59 1013.1
20260506230035 70 348 4.0 11.0 0.00 0.00 0.00 58 1013.0
20260506224524 70 59 2.0 9.0 0.00 0.00 0.00 59 1012.8
20260506223029 70 59 4.0 9.0 0.00 0.00 0.00 59 1012.8
20260506221522 70 90 3.0 8.0 0.00 0.00 0.00 59 1012.8
20260506220023 69 328 5.0 9.0 0.00 0.00 0.00 60 1012.8
20260506214522 68 11 4.0 8.0 0.00 0.00 0.00 64 1012.8
20260506213021 68 40 2.0 8.0 0.00 0.00 0.00 60 1013.2
20260506211622 68 61 5.0 8.0 0.00 0.00 0.00 63 1013.1
20260506210010 67 58 2.0 8.0 0.00 0.00 0.00 63 1013.1
20260506204507 66 355 4.0 10.0 0.00 0.00 0.00 67 1013.3
20260506203010 65 84 5.0 10.0 0.00 0.00 0.00 67 1013.6
20260506201510 64 113 0.0 9.0 0.00 0.00 0.00 69 1013.9
20260506200005 63 26 3.0 8.0 0.00 0.00 0.00 71 1014.1
20260506194507 62 11 5.0 9.0 0.00 0.00 0.00 71 1014.1
20260506193007 62 22 4.0 8.0 0.00 0.00 0.00 73 1014.5
20260506191509 61 19 3.0 8.0 0.00 0.00 0.00 74 1014.5
20260506190054 61 14 4.0 11.0 0.00 0.00 0.00 73 1014.6
20260506184553 61 19 4.0 9.0 0.00 0.00 0.00 73 1014.6
20260506183058 60 98 4.0 9.0 0.00 0.00 0.00 73 1014.8
20260506181555 60 37 3.0 11.0 0.00 0.00 0.00 73 1014.8
20260506180150 60 15 6.0 13.0 0.00 0.00 0.00 73 1015.0
20260506174548 60 17 6.0 12.0 0.00 0.00 0.00 75 1015.0
20260506173054 59 349 8.0 12.0 0.00 0.00 0.00 76 1015.2
20260506171549 58 28 5.0 12.0 0.00 0.00 0.00 76 1015.2
20260506170043 58 20 8.0 12.0 0.00 0.00 0.00 77 1014.8
20260506164549 57 355 5.0 10.0 0.00 0.00 0.00 78 1014.9
20260506163035 57 22 7.0 12.0 0.00 0.00 0.00 78 1014.8
20260506161530 56 348 6.0 13.0 0.00 0.00 0.00 79 1014.4
20260506160033 56 336 9.0 14.0 0.00 0.00 0.00 79 1014.4
20260506154529 55 24 9.0 15.0 0.00 0.00 0.00 81 1013.8
20260506153027 54 325 8.0 14.0 0.00 0.00 0.00 82 1013.9
20260506151526 54 40 7.0 12.0 0.00 0.00 0.00 83 1013.5
20260506150013 53 325 11.0 15.0 0.00 0.00 0.00 83 1013.1
20260506144522 53 350 8.0 14.0 0.00 0.00 0.00 84 1013.6
20260506143011 53 28 9.0 14.0 0.00 0.00 0.00 84 1012.9
20260506141522 53 22 10.0 17.0 0.00 0.00 0.00 84 1012.4
20260506140007 53 56 5.0 11.0 0.00 0.00 0.00 84 1012.9
20260506134505 52 329 4.0 8.0 0.00 0.00 0.00 84 1013.2
20260506133003 52 33 6.0 14.0 0.00 0.00 0.00 84 1011.8
20260506131502 52 74 9.0 14.0 0.00 0.00 0.00 83 1011.2
20260506130040 53 77 5.0 10.0 0.00 0.00 0.00 82 1013.1
20260506124537 54 5 10.0 14.0 0.00 0.00 0.00 81 1012.1
20260506123021 54 331 5.0 13.0 0.00 0.00 0.00 82 1012.2
20260506121517 54 15 5.0 13.0 0.00 0.00 0.00 82 1011.2
20260506120030 55 15 5.0 10.0 0.00 0.00 0.00 81 1011.8
20260506114510 55 50 3.0 10.0 0.00 0.00 0.00 81 1011.0
20260506113008 55 28 4.0 10.0 0.00 0.00 0.00 82 1010.9
20260506111506 55 360 4.0 8.0 0.00 0.00 0.00 82 1010.8
20260506110006 55 19 4.0 10.0 0.00 0.00 0.00 81 1010.2
20260506104615 55 31 2.0 10.0 0.00 0.00 0.00 81 1010.0
20260506103059 55 20 4.0 9.0 0.00 0.00 0.00 81 1009.8
20260506101544 55 22 7.0 14.0 0.00 0.00 0.00 80 1010.0
20260506100052 56 26 7.0 15.0 0.00 0.00 0.00 80 1009.4
20260506094540 56 355 5.0 11.0 0.00 0.00 0.00 80 1009.5
20260506093035 56 5 6.0 12.0 0.00 0.00 0.00 80 1009.1
20260506091532 57 13 7.0 14.0 0.00 0.00 0.00 79 1008.7
20260506090029 58 16 7.0 13.0 0.00 0.00 0.00 78 1008.5
20260506084556 58 28 6.0 12.0 0.00 0.00 0.00 78 1008.6